{"data":{"norad_id":63680,"intl_designator":"2025-085S","name":"STARLINK-33887","alt_names":[],"object_type":"PAYLOAD","status":"ACTIVE","operator":null,"country":"US","launch_date":"2025-04-28","launch_site_code":"AFETR","launch_vehicle":null,"mission":null,"orbit_class":"UNKNOWN","rcs_meters":null,"size_class":null,"mass_kg":null,"dimensions":null,"purposes":["comms"],"wikipedia_slug":null,"has_3d_model":false,"image_url":null,"decayed_at":null,"tle_current":{"epoch":"2026-09-20T08:03:08.624736Z","epoch_age_seconds":166854,"freshness":"FRESH","line1":"1 63680U 25085S   26263.33551649  .00005585  00000+0  21230-3 0  9991","line2":"2 63680  43.0030  11.2125 0000681 277.1169  82.9605 15.27581091 78706","mean_motion":15.27581091,"eccentricity":6.81e-5,"inclination_deg":43.003,"raan_deg":11.2125,"arg_perigee_deg":277.1169,"mean_anomaly_deg":82.9605,"bstar":0.0002123,"rev_number":7870,"period_min":94.266681388242,"perigee_km":482.57858264444,"apogee_km":483.51307574578,"semimajor_km":6861.1828291951,"source":"CELESTRAK","updated_at":"2026-09-21T09:00:35.060339Z"}}}